Theta_e
302 301 302 302 303 304 304 306 308 309 310 311 313 312 312 311 312 312 313 314 314 313
302 302 301 302 303 302 303 304 306 305 306 308 309 310 312 311 311 311 309 309 309 311
301 301 301 301 300 301 302 302 303 304 305 306 308 309 310 309 310 309 309 308 308 309
300 300 300 300 301 301 301 302 302 303 305 306 306 306 306 307 307 306 306 307 307 309
300 300 299 300 301 302 301 302 303 304 305 305 307 308 306 305 306 305 305 306 306 307
299 300 300 300 302 302 302 302 303 303 303 304 305 306 307 307 306 306 306 307 307 307
300 301 301 302 302 302 303 302 303 303 303 304 305 305 306 306 306 306 307 307 308 309
301 302 302 303 303 303 303 303 303 303 304 304 304 305 304 305 306 306 306 307 307 309
301 302 302 303 303 304 304 304 303 303 303 303 304 303 304 306 305 305 305 304 306 308
301 302 302 303 304 303 303 304 303 303 303 303 304 301 301 304 305 305 305 304 305 305
301 301 302 303 303 304 305 304 304 303 304 304 303 301 300 301 304 304 304 305 305 305
301 301 302 302 304 304 303 303 304 304 304 303 303 301 299 300 303 303 303 304 305 305
302 302 302 303 305 304 304 303 303 304 305 304 304 301 299 300 303 302 302 303 304 303
302 302 304 305 305 304 304 303 302 302 302 302 302 303 298 299 303 302 301 301 302 303
Wind_Speed
6 4 6 6 7 7 6 7 9 8 7 7 6 6 5 3 3 4 3 4 2 2
8 9 9 10 8 7 9 8 9 8 8 8 7 6 5 3 4 3 3 4 4 3
9 9 9 8 10 10 9 9 9 9 8 7 7 7 5 4 4 4 3 3 4 5
10 9 9 9 11 10 10 10 9 9 9 8 7 7 6 6 6 6 5 5 6 7
10 10 10 11 11 10 10 10 10 10 10 9 8 8 8 8 7 7 7 8 7 7
11 11 11 11 12 11 11 11 10 10 10 9 8 7 5 6 7 8 8 8 8 8
12 12 12 12 13 12 11 11 11 10 9 10 8 8 7 7 8 8 6 7 8 8
13 13 13 13 12 12 11 10 10 10 9 9 8 6 8 7 6 5 6 7 6 7
13 13 13 13 13 12 11 10 9 9 9 9 7 8 10 9 5 6 6 4 4 4
15 14 14 13 13 12 11 10 9 9 8 9 8 11 11 11 6 6 6 6 4 3
13 14 14 14 13 11 9 8 7 7 8 8 7 11 10 10 6 6 6 6 5 5
14 14 14 14 14 10 8 7 7 6 7 7 7 10 10 9 7 7 7 7 6 7
14 14 14 14 12 9 9 8 6 6 5 6 6 9 10 8 5 6 5 5 7 8
14 13 13 12 10 9 9 8 6 5 3 5 5 4 9 11 6 5 5 5 5 4
Wind_Direction
287 274 282 279 291 289 285 290 298 302 304 285 253 229 212 210 201 203 205 219 199 202
302 304 301 298 290 286 288 286 288 297 297 297 281 257 231 219 220 204 214 217 210 224
296 291 285 289 286 283 284 286 286 285 281 269 262 251 226 217 217 202 215 248 240 226
293 289 288 288 287 285 283 279 278 281 277 273 257 237 225 224 224 216 217 212 224 237
291 289 283 280 280 279 274 276 276 275 273 274 269 249 216 209 206 210 220 228 211 228
294 291 286 279 278 278 278 276 274 270 270 267 267 263 238 221 225 218 216 221 214 224
292 291 288 286 284 278 271 267 268 264 261 260 260 253 251 243 230 220 213 215 216 219
297 296 293 290 287 281 269 261 256 258 256 248 246 242 242 237 219 211 220 214 211 223
302 302 299 292 289 285 274 265 255 250 245 243 241 234 236 236 217 208 201 199 209 236
316 307 301 299 297 292 285 271 251 246 243 242 236 229 231 229 223 202 201 197 193 212
310 307 307 306 305 303 295 280 253 241 233 237 233 223 225 223 208 199 194 181 188 204
311 308 310 312 311 311 301 298 277 238 232 223 234 222 213 196 185 183 182 183 186 203
310 309 311 313 315 311 312 298 298 269 247 229 244 209 209 177 165 165 167 166 178 191
313 313 312 313 312 311 314 321 312 278 264 253 238 198 178 163 159 157 160 159 157 181